TimeCDT,TemperatureF,Dew PointF,Humidity,Sea Level PressureIn,VisibilityMPH,Wind Direction,Wind SpeedMPH,Gust SpeedMPH,PrecipitationIn,Events,Conditions,WindDirDegrees,DateUTC
12:15 AM,66.4,56.7,71,29.93,10.0,West,8.1,-,N/A,,Overcast,270,2013-08-02 05:15:00
12:35 AM,69.4,56.3,63,29.93,10.0,SW,5.8,-,N/A,,Mostly Cloudy,220,2013-08-02 05:35:00
12:55 AM,69.4,55.8,62,29.93,10.0,Calm,Calm,-,N/A,,Overcast,0,2013-08-02 05:55:00
1:15 AM,67.1,56.5,69,29.91,10.0,South,5.8,-,N/A,,Mostly Cloudy,180,2013-08-02 06:15:00
1:55 AM,66.2,57.4,73,29.90,10.0,SSE,5.8,-,N/A,,Overcast,150,2013-08-02 06:55:00
2:15 AM,65.3,58.5,78,29.89,10.0,SSE,8.1,-,N/A,,Mostly Cloudy,150,2013-08-02 07:15:00
2:35 AM,65.3,61.2,86,29.89,10.0,South,6.9,-,N/A,,Scattered Clouds,180,2013-08-02 07:35:00
2:55 AM,65.3,62.2,90,29.87,10.0,South,10.4,-,N/A,,Mostly Cloudy,170,2013-08-02 07:55:00
3:15 AM,64.9,63.5,95,29.88,10.0,South,5.8,-,N/A,,Mostly Cloudy,190,2013-08-02 08:15:00
3:35 AM,64.9,64.4,98,29.86,10.0,South,6.9,-,N/A,,Mostly Cloudy,180,2013-08-02 08:35:00
3:39 AM,64.4,64.4,100,29.86,10.0,South,9.2,-,N/A,Thunderstorm,Mostly Cloudy,190,2013-08-02 08:39:00
3:55 AM,66.7,65.1,95,29.87,10.0,SSW,12.7,-,N/A,,Mostly Cloudy,200,2013-08-02 08:55:00
4:15 AM,66.7,65.3,95,29.87,10.0,SSW,9.2,-,N/A,Thunderstorm,Overcast,210,2013-08-02 09:15:00
4:35 AM,66.4,65.3,96,29.87,10.0,SSW,5.8,-,N/A,,Overcast,210,2013-08-02 09:35:00
4:55 AM,65.8,65.3,98,29.87,10.0,Calm,Calm,-,N/A,Thunderstorm,Mostly Cloudy,0,2013-08-02 09:55:00
5:15 AM,65.5,65.3,99,29.88,10.0,Calm,Calm,-,N/A,,Scattered Clouds,0,2013-08-02 10:15:00
5:35 AM,64.2,64.2,100,29.88,10.0,Calm,Calm,-,N/A,,Scattered Clouds,0,2013-08-02 10:35:00
5:55 AM,64.4,64.4,100,29.88,10.0,South,3.5,-,N/A,,Clear,180,2013-08-02 10:55:00
6:15 AM,63.5,63.5,100,29.88,10.0,South,4.6,-,N/A,,Mostly Cloudy,190,2013-08-02 11:15:00
6:35 AM,63.9,63.9,100,29.88,10.0,SSW,4.6,-,N/A,,Mostly Cloudy,200,2013-08-02 11:35:00
6:55 AM,64.4,64.4,100,29.87,10.0,SSW,5.8,-,N/A,,Scattered Clouds,210,2013-08-02 11:55:00
7:35 AM,68.0,68.0,100,29.88,10.0,WSW,9.2,-,N/A,,Scattered Clouds,250,2013-08-02 12:35:00
7:55 AM,68.9,68.2,98,29.87,10.0,West,11.5,-,N/A,,Clear,260,2013-08-02 12:55:00
8:15 AM,70.2,67.8,92,29.87,10.0,West,10.4,16.1,N/A,,Clear,280,2013-08-02 13:15:00
8:35 AM,71.1,66.4,85,29.88,10.0,West,8.1,-,N/A,,Clear,280,2013-08-02 13:35:00
8:55 AM,72.1,66.4,82,29.88,10.0,WNW,6.9,-,N/A,,Clear,290,2013-08-02 13:55:00
9:15 AM,72.9,63.9,73,29.88,10.0,WNW,6.9,-,N/A,,Clear,290,2013-08-02 14:15:00
9:35 AM,74.1,63.7,70,29.88,10.0,West,9.2,-,N/A,,Clear,280,2013-08-02 14:35:00
9:55 AM,75.4,63.5,66,29.89,10.0,NNW,5.8,-,N/A,,Scattered Clouds,340,2013-08-02 14:55:00
10:15 AM,76.6,60.6,58,29.89,10.0,North,8.1,-,N/A,,Clear,350,2013-08-02 15:15:00
10:35 AM,77.5,59.9,54,29.89,10.0,NNW,6.9,-,N/A,,Clear,340,2013-08-02 15:35:00
10:55 AM,78.1,59.0,52,29.89,10.0,NNW,8.1,-,N/A,,Scattered Clouds,330,2013-08-02 15:55:00
11:15 AM,79.0,57.9,48,29.89,10.0,North,8.1,-,N/A,,Scattered Clouds,350,2013-08-02 16:15:00
11:35 AM,79.5,57.4,47,29.89,10.0,NNW,9.2,-,N/A,,Clear,340,2013-08-02 16:35:00
11:55 AM,79.7,56.5,45,29.89,10.0,North,8.1,16.1,N/A,,Scattered Clouds,350,2013-08-02 16:55:00
12:15 PM,80.1,57.2,45,29.89,10.0,NNW,3.5,-,N/A,,Scattered Clouds,330,2013-08-02 17:15:00
12:35 PM,81.0,58.3,46,29.90,10.0,NW,10.4,-,N/A,,Scattered Clouds,320,2013-08-02 17:35:00
12:55 PM,80.8,56.8,44,29.90,10.0,NW,4.6,9.2,N/A,,Scattered Clouds,320,2013-08-02 17:55:00
1:15 PM,81.0,56.1,42,29.90,10.0,WNW,10.4,-,N/A,,Mostly Cloudy,290,2013-08-02 18:15:00
1:35 PM,81.7,55.8,41,29.90,10.0,NNW,8.1,17.3,N/A,,Overcast,340,2013-08-02 18:35:00
1:55 PM,81.7,56.7,42,29.90,10.0,West,6.9,-,N/A,,Scattered Clouds,270,2013-08-02 18:55:00
2:15 PM,81.5,55.8,41,29.90,10.0,NW,4.6,-,N/A,,Scattered Clouds,320,2013-08-02 19:15:00
2:35 PM,81.7,55.2,40,29.90,10.0,NW,6.9,-,N/A,,Scattered Clouds,310,2013-08-02 19:35:00
2:55 PM,81.5,52.3,36,29.90,10.0,West,6.9,-,N/A,,Mostly Cloudy,260,2013-08-02 19:55:00
3:15 PM,81.3,54.0,39,29.90,10.0,WNW,8.1,-,N/A,,Overcast,300,2013-08-02 20:15:00
3:35 PM,80.4,53.6,39,29.90,10.0,NW,9.2,-,N/A,,Overcast,310,2013-08-02 20:35:00
3:55 PM,80.2,54.0,40,29.90,10.0,NW,9.2,-,N/A,,Mostly Cloudy,310,2013-08-02 20:55:00
4:15 PM,79.7,52.5,39,29.90,10.0,WNW,8.1,-,N/A,,Mostly Cloudy,300,2013-08-02 21:15:00
4:35 PM,79.7,54.5,42,29.90,10.0,WNW,8.1,-,N/A,,Overcast,300,2013-08-02 21:35:00
4:55 PM,79.7,53.8,41,29.90,10.0,NW,8.1,-,N/A,,Mostly Cloudy,320,2013-08-02 21:55:00
5:15 PM,79.7,54.1,41,29.90,10.0,WNW,11.5,-,N/A,,Clear,300,2013-08-02 22:15:00
5:35 PM,78.8,54.5,43,29.91,10.0,NW,6.9,-,N/A,,Clear,320,2013-08-02 22:35:00
5:55 PM,77.9,53.4,43,29.91,10.0,NNW,8.1,-,N/A,,Clear,330,2013-08-02 22:55:00
6:15 PM,77.0,53.6,44,29.91,10.0,NW,8.1,-,N/A,,Clear,320,2013-08-02 23:15:00
6:35 PM,76.1,54.5,47,29.92,10.0,NW,6.9,-,N/A,,Clear,320,2013-08-02 23:35:00
6:55 PM,75.4,55.0,49,29.93,10.0,NW,5.8,-,N/A,,Clear,320,2013-08-02 23:55:00
7:15 PM,74.7,54.7,50,29.93,10.0,NW,6.9,-,N/A,,Scattered Clouds,320,2013-08-03 00:15:00
7:35 PM,74.3,54.9,51,29.95,10.0,NW,5.8,-,N/A,,Mostly Cloudy,320,2013-08-03 00:35:00
7:55 PM,73.4,55.4,53,29.95,10.0,NW,5.8,-,N/A,,Overcast,320,2013-08-03 00:55:00
8:15 PM,72.7,54.7,53,29.94,10.0,NW,5.8,-,N/A,,Mostly Cloudy,320,2013-08-03 01:15:00
8:35 PM,72.0,54.3,54,29.94,10.0,NW,6.9,-,N/A,,Mostly Cloudy,320,2013-08-03 01:35:00
8:55 PM,71.6,54.3,54,29.94,10.0,NW,3.5,-,N/A,,Mostly Cloudy,320,2013-08-03 01:55:00
9:15 PM,70.7,54.9,57,29.95,10.0,NNW,4.6,-,N/A,,Overcast,330,2013-08-03 02:15:00
9:35 PM,70.0,55.4,60,29.96,10.0,NNW,5.8,-,N/A,,Light Drizzle,340,2013-08-03 02:35:00
9:55 PM,69.8,55.4,60,29.97,10.0,NNW,5.8,-,N/A,,Overcast,330,2013-08-03 02:55:00
10:15 PM,69.8,54.7,59,29.97,10.0,NNW,5.8,-,N/A,,Mostly Cloudy,330,2013-08-03 03:15:00
10:35 PM,69.8,54.5,58,29.98,10.0,NNW,6.9,-,N/A,,Scattered Clouds,340,2013-08-03 03:35:00
10:55 PM,69.3,54.1,59,29.97,10.0,NNW,6.9,-,N/A,,Clear,340,2013-08-03 03:55:00
11:15 PM,68.5,54.0,60,29.96,10.0,North,6.9,-,N/A,,Clear,350,2013-08-03 04:15:00
11:35 PM,68.0,54.1,61,29.97,10.0,North,6.9,-,N/A,,Clear,360,2013-08-03 04:35:00
11:55 PM,67.5,54.1,62,29.98,10.0,North,5.8,-,N/A,,Clear,350,2013-08-03 04:55:00